DAL2525 YMHB-YMLT

Flight info

Callsign DAL2525
Flight time 0h 26m
Altitude 12000
Route KANLI3/30 KANLI LATUM
Aircraft E110/L-SDFGHRY/S

Departure

Time 2026-04-30 06:24
Airport Hobart International Airport (YMHB)

Arrival

Time 2026-04-30 06:51
Airport Launceston Airport (YMLT)
Time Latitude Longitude Altitude Speed Heading
2026-04-30 06:24 -42.81048 147.47693 537 ft 186 kts 316°
2026-04-30 06:24 -42.80123 147.46439 720 ft 189 kts 319°
2026-04-30 06:25 -42.79179 147.45182 914 ft 191 kts 319°
2026-04-30 06:25 -42.78237 147.43890 1114 ft 193 kts 316°
2026-04-30 06:25 -42.77292 147.42588 1312 ft 193 kts 317°
2026-04-30 06:25 -42.76351 147.41295 1511 ft 191 kts 318°
2026-04-30 06:26 -42.75425 147.40027 1714 ft 187 kts 317°
2026-04-30 06:26 -42.74512 147.38776 1911 ft 187 kts 319°
2026-04-30 06:26 -42.73593 147.37519 2094 ft 186 kts 319°
2026-04-30 06:26 -42.72688 147.36277 2311 ft 186 kts 317°
2026-04-30 06:27 -42.71780 147.35027 2513 ft 186 kts 317°
2026-04-30 06:27 -42.70864 147.33780 2706 ft 185 kts 317°
2026-04-30 06:27 -42.69962 147.32548 2908 ft 182 kts 316°
2026-04-30 06:27 -42.69082 147.31344 3108 ft 182 kts 315°
2026-04-30 06:28 -42.68190 147.30127 3310 ft 181 kts 314°
2026-04-30 06:28 -42.67302 147.28914 3509 ft 181 kts 315°
2026-04-30 06:28 -42.66403 147.27686 3706 ft 181 kts 315°
2026-04-30 06:28 -42.65531 147.26498 3896 ft 178 kts 315°
2026-04-30 06:29 -42.64662 147.25309 4102 ft 177 kts 314°
2026-04-30 06:29 -42.63787 147.24118 4221 ft 181 kts 314°
2026-04-30 06:29 -42.62889 147.22897 4228 ft 186 kts 314°
2026-04-30 06:29 -42.61957 147.21624 4233 ft 192 kts 314°
2026-04-30 06:30 -42.61016 147.20348 4240 ft 188 kts 314°
2026-04-30 06:30 -42.60079 147.19072 4235 ft 194 kts 314°
2026-04-30 06:30 -42.59045 147.17903 4256 ft 197 kts 329°
2026-04-30 06:30 -42.57708 147.17371 4252 ft 206 kts 349°
2026-04-30 06:31 -42.56257 147.17638 4254 ft 219 kts 14°
2026-04-30 06:31 -42.54916 147.18708 4252 ft 228 kts 28°
2026-04-30 06:31 -42.53592 147.19938 4121 ft 232 kts 27°
2026-04-30 06:31 -42.52250 147.21166 4014 ft 233 kts 27°
2026-04-30 06:32 -42.50919 147.22389 4008 ft 229 kts 28°
2026-04-30 06:32 -42.49601 147.23592 4005 ft 227 kts 27°
2026-04-30 06:32 -42.48295 147.24788 4018 ft 226 kts 27°
2026-04-30 06:32 -42.47002 147.26002 4006 ft 225 kts 28°
2026-04-30 06:33 -42.45726 147.27226 4004 ft 224 kts 28°
2026-04-30 06:33 -42.44449 147.28434 4011 ft 225 kts 27°
2026-04-30 06:33 -42.43159 147.29641 4012 ft 227 kts 28°
2026-04-30 06:33 -42.41889 147.30834 4003 ft 223 kts 28°
2026-04-30 06:34 -42.40616 147.32045 4015 ft 224 kts 28°
2026-04-30 06:34 -42.39341 147.33250 4017 ft 223 kts 27°
2026-04-30 06:34 -42.38066 147.34445 4017 ft 222 kts 28°
2026-04-30 06:34 -42.36794 147.35638 4013 ft 223 kts 27°
2026-04-30 06:35 -42.35541 147.36815 4039 ft 215 kts 28°
2026-04-30 06:35 -42.34297 147.37970 4033 ft 219 kts 28°
2026-04-30 06:35 -42.33005 147.39084 3933 ft 219 kts 17°
2026-04-30 06:35 -42.31545 147.39560 3807 ft 217 kts 360°
2026-04-30 06:36 -42.30054 147.39393 3676 ft 215 kts 345°
2026-04-30 06:36 -42.28586 147.39016 3556 ft 216 kts 347°
2026-04-30 06:36 -42.27102 147.38672 3427 ft 216 kts 347°
2026-04-30 06:36 -42.25626 147.38316 3307 ft 216 kts 348°
2026-04-30 06:37 -42.24147 147.37955 3179 ft 216 kts 349°
2026-04-30 06:37 -42.22699 147.37593 3058 ft 214 kts 348°
2026-04-30 06:37 -42.21226 147.37258 3029 ft 215 kts 349°
2026-04-30 06:37 -42.19769 147.36911 3029 ft 211 kts 348°
2026-04-30 06:38 -42.18316 147.36614 3043 ft 211 kts 358°
2026-04-30 06:38 -42.16859 147.36918 3038 ft 212 kts 10°
2026-04-30 06:38 -42.15419 147.37367 3042 ft 213 kts 10°
2026-04-30 06:38 -42.13977 147.37819 3046 ft 213 kts 10°
2026-04-30 06:39 -42.12538 147.38276 3043 ft 211 kts
2026-04-30 06:39 -42.11098 147.38731 3044 ft 213 kts 11°
2026-04-30 06:39 -42.09660 147.39188 3042 ft 213 kts 10°
2026-04-30 06:39 -42.08219 147.39623 3037 ft 211 kts
2026-04-30 06:40 -42.06782 147.39449 3043 ft 208 kts 348°
2026-04-30 06:40 -42.05358 147.39012 3013 ft 211 kts 346°
2026-04-30 06:40 -42.03919 147.38597 3004 ft 211 kts 349°
2026-04-30 06:40 -42.02476 147.38286 3002 ft 211 kts 350°
2026-04-30 06:41 -42.01025 147.37996 3007 ft 209 kts 351°
2026-04-30 06:41 -41.99587 147.37699 3003 ft 210 kts 350°
2026-04-30 06:41 -41.98159 147.37399 3008 ft 211 kts 350°
2026-04-30 06:41 -41.96704 147.37096 3011 ft 212 kts 351°
2026-04-30 06:42 -41.95237 147.36793 3004 ft 214 kts 350°
2026-04-30 06:42 -41.93767 147.36488 3009 ft 214 kts 350°
2026-04-30 06:42 -41.92290 147.36180 3003 ft 214 kts 350°
2026-04-30 06:42 -41.90811 147.35873 3008 ft 215 kts 351°
2026-04-30 06:43 -41.89337 147.35567 3004 ft 215 kts 350°
2026-04-30 06:43 -41.87856 147.35260 3004 ft 215 kts 350°
2026-04-30 06:43 -41.86384 147.34956 3005 ft 214 kts 349°
2026-04-30 06:43 -41.84917 147.34653 2997 ft 213 kts 349°
2026-04-30 06:44 -41.83456 147.34348 2995 ft 212 kts 350°
2026-04-30 06:44 -41.81993 147.34045 2990 ft 212 kts 350°
2026-04-30 06:44 -41.80525 147.33742 2991 ft 214 kts 350°
2026-04-30 06:44 -41.79060 147.33441 2993 ft 213 kts 349°
2026-04-30 06:45 -41.77588 147.33133 2988 ft 214 kts 350°
2026-04-30 06:45 -41.76139 147.32834 2987 ft 214 kts 350°
2026-04-30 06:45 -41.74662 147.32529 2988 ft 215 kts 350°
2026-04-30 06:45 -41.73181 147.32226 2982 ft 216 kts 349°
2026-04-30 06:46 -41.71704 147.31922 2981 ft 208 kts 349°
2026-04-30 06:46 -41.70389 147.31652 2968 ft 176 kts 349°
2026-04-30 06:46 -41.69241 147.31404 2965 ft 160 kts 349°
2026-04-30 06:46 -41.68173 147.31178 2966 ft 152 kts 349°
2026-04-30 06:47 -41.67171 147.30973 2965 ft 139 kts 348°
2026-04-30 06:47 -41.66239 147.30779 2965 ft 132 kts 349°
2026-04-30 06:47 -41.65387 147.30409 2891 ft 129 kts 326°
2026-04-30 06:47 -41.64606 147.29738 2722 ft 138 kts 330°
2026-04-30 06:48 -41.63776 147.29061 2537 ft 141 kts 328°
2026-04-30 06:48 -41.62952 147.28337 2352 ft 145 kts 328°
2026-04-30 06:48 -41.62085 147.27603 2153 ft 144 kts 328°
2026-04-30 06:48 -41.61281 147.26903 1974 ft 136 kts 329°
2026-04-30 06:49 -41.60489 147.26229 1779 ft 128 kts 329°
2026-04-30 06:49 -41.59780 147.25616 1618 ft 118 kts 328°
2026-04-30 06:49 -41.59115 147.25047 1466 ft 109 kts 328°
2026-04-30 06:49 -41.58492 147.24504 1328 ft 103 kts 331°
2026-04-30 06:50 -41.57896 147.23999 1192 ft 101 kts 328°
2026-04-30 06:50 -41.57321 147.23505 1067 ft 95 kts 328°
2026-04-30 06:50 -41.56774 147.23039 947 ft 93 kts 330°
2026-04-30 06:50 -41.56237 147.22580 829 ft 90 kts 330°
2026-04-30 06:51 -41.55692 147.22115 715 ft 95 kts 330°
2026-04-30 06:51 -41.55134 147.21627 591 ft 95 kts 328°
2026-04-30 06:51 -41.54679 147.21247 558 ft 35 kts 325°
2026-04-30 06:51 -41.54582 147.21154 559 ft 11 kts 328°
2026-04-30 06:52 -41.54517 147.21086 562 ft 11 kts 297°
2026-04-30 06:52 -41.54548 147.20982 561 ft 15 kts 249°
2026-04-30 06:52 -41.54494 147.20892 559 ft 12 kts 324°
2026-04-30 06:52 -41.54451 147.20857 559 ft 10 kts 328°
2026-04-30 06:53 -41.54440 147.20818 559 ft 5 kts 246°
2026-04-30 06:53 -41.54451 147.20793 558 ft 0 kts 237°